Location: Innsbruck
(47.2657°N, 11.3914°E)
Time: 00:34:19
(UTC+02:00)

Nauka - Pass Details

Date: 30 September 2021
Orbit: 417 x 423 km, 51.6° (Epoch: 16 October)

Event Time Altitude Azimuth Distance (km) Brightness Sun altitude
Rises 19:25:26 0° 290° (WNW) 2,365 ? -5.9°
Reaches altitude 10° 19:27:36 10° 297° (WNW) 1,500 ? -6.2°
Maximum altitude 19:30:50 43° 10° (N) 605 ? -6.8°
Drops below altitude 10° 19:34:04 10° 84° (E) 1,500 ? -7.3°
Enters shadow 19:34:09 - 85° (E) 1,536 ? -7.3°
